Observations for Trim Patrick St
| Time | AQI | Temp °C | Hum % | Pres Pa | CO μg/m³ | H₂S μg/m³ | NO μg/m³ | NO₂ μg/m³ | O₃ μg/m³ | SO₂ μg/m³ | PM1 μg/m³ | PM2.5 μg/m³ | PM10 μg/m³ |
|---|---|---|---|---|---|---|---|---|---|---|---|---|---|
| Monday 3 August 2026 | |||||||||||||
| 22:25 | 3 | 17 | 81 | 38,460 | 0.07 | 14.8 | 0.49 | 54.79 | 34.07 | 0 | 6.29 | 11.41 | 12.55 |
| 22:24 | 3 | 17 | 81 | 38,460 | 0.08 | 15.45 | 0.75 | 63.28 | 19.03 | 0 | 8.86 | 13.55 | 14.9 |
| 22:23 | 3 | 17 | 81 | 38,460 | 0.07 | 14.54 | 0.82 | 47.96 | 22.19 | 0 | 5.43 | 10.76 | 11.84 |
| 22:22 | 3 | 17 | 80 | 38,460 | 0.07 | 13.78 | 1.09 | 60.74 | 27.22 | 0 | 5.43 | 10.79 | 11.87 |
| 22:21 | 3 | 17 | 80 | 38,460 | 0.08 | 12.05 | 1.09 | 58.6 | 0.71 | 0.52 | 5.43 | 10.8 | 11.88 |
| 22:20 | 3 | 17 | 80 | 38,460 | 0.06 | 9.86 | 1.07 | 46.13 | 13.58 | 0 | 4.57 | 8.71 | 9.58 |
| 22:19 | 3 | 17.1 | 80 | 38,460 | 0.05 | 9.07 | 0.84 | 32.94 | 25.28 | 0 | 2 | 5.21 | 5.73 |
| 22:18 | 3 | 17.1 | 80 | 38,460 | 0.05 | 11.17 | 0.79 | 38.25 | 25.66 | 0.21 | 3.71 | 6.6 | 7.26 |
| 22:17 | 3 | 17.1 | 80 | 38,460 | 0.04 | 10.93 | 0.53 | 42.88 | 16.44 | 0 | 2.86 | 6.6 | 7.26 |
| 22:16 | 3 | 17.1 | 80 | 38,460 | 0.03 | 9.89 | 0.52 | 37.52 | 21.32 | 0 | 2.86 | 6.61 | 7.28 |
| 22:15 | 3 | 17.2 | 80 | 38,460 | 0.04 | 12.53 | 0.42 | 28.47 | 29.64 | 0.43 | 2 | 5.92 | 6.51 |
| 22:14 | 3 | 17.2 | 79 | 38,460 | 0.03 | 14.72 | 0.58 | 53.39 | 24.53 | 0 | 2.86 | 5.97 | 6.56 |
| 22:13 | 3 | 17.2 | 79 | 38,460 | 0.03 | 13.86 | 0.53 | 47.31 | 29.08 | 0 | 3.71 | 7.39 | 8.13 |
| 22:12 | 3 | 17.2 | 78 | 38,460 | 0.02 | 13.76 | 0.66 | 61.47 | 48.19 | 0 | 2.86 | 6.74 | 7.41 |
| 22:11 | 3 | 17.3 | 80 | 38,460 | 0.02 | 13 | 0.59 | 33.42 | 25.57 | 0.27 | 2.86 | 5.95 | 6.54 |
| 22:10 | 3 | 17.3 | 79 | 38,460 | 0.01 | 14.36 | 0.78 | 49.71 | 44.14 | 0 | 2.86 | 6.01 | 6.61 |
| 22:09 | 3 | 17.3 | 78 | 38,460 | 0.02 | 14.75 | 0.77 | 47.9 | 20.74 | 0 | 4.57 | 7.44 | 8.18 |
| 22:08 | 3 | 17.3 | 79 | 38,460 | 0.04 | 14.65 | 0.78 | 57.28 | 47.11 | 0.15 | 2 | 5.97 | 6.56 |
| 22:07 | 3 | 17.4 | 79 | 38,460 | 0.02 | 14.54 | 0.82 | 40.79 | 20.17 | 0.83 | 3.71 | 7.39 | 8.13 |
| 22:06 | 3 | 17.4 | 79 | 38,460 | 0.03 | 15.33 | 0.91 | 47.53 | 23.34 | 0.23 | 2.86 | 6.01 | 6.61 |